Year,Month,Day,Hour,Minute,Value (Times are PST for temperature in C)
2008,01,21,10,34,2.40
2008,01,21,10,35,2.50
2008,01,21,10,36,2.50
2008,01,21,10,37,2.50
2008,01,21,10,38,2.60
2008,01,21,10,39,2.70
2008,01,21,10,40,2.70
2008,01,21,10,41,2.80
2008,01,21,10,42,2.90
2008,01,21,10,43,2.90
2008,01,21,10,44,3.00
2008,01,21,10,45,3.10
2008,01,21,10,46,3.10
2008,01,21,10,47,3.20
2008,01,21,10,48,3.20
2008,01,21,10,49,3.20
2008,01,21,10,50,3.30
2008,01,21,10,51,3.30
2008,01,21,10,52,3.30
2008,01,21,10,53,3.40
2008,01,21,10,54,3.40
2008,01,21,10,55,3.40
2008,01,21,10,56,3.40
2008,01,21,10,57,3.50
2008,01,21,10,58,3.40
2008,01,21,10,59,3.50
2008,01,21,11,00,3.50
2008,01,21,11,01,3.50
2008,01,21,11,02,3.50
2008,01,21,11,03,3.60
2008,01,21,11,04,3.60
2008,01,21,11,05,3.60
2008,01,21,11,06,3.60
2008,01,21,11,07,3.70
2008,01,21,11,08,3.70
2008,01,21,11,09,3.80
2008,01,21,11,10,3.80
2008,01,21,11,11,3.80
2008,01,21,11,12,3.80
2008,01,21,11,13,3.80
2008,01,21,11,14,3.80
2008,01,21,11,15,3.80
2008,01,21,11,16,3.90
2008,01,21,11,17,3.90
2008,01,21,11,18,3.90
2008,01,21,11,19,3.90
2008,01,21,11,20,3.90
2008,01,21,11,21,4.00
2008,01,21,11,22,4.00
2008,01,21,11,23,4.00
2008,01,21,11,24,4.00
2008,01,21,11,25,4.10
2008,01,21,11,26,4.10
2008,01,21,11,27,4.20
2008,01,21,11,28,4.20
2008,01,21,11,29,4.20
2008,01,21,11,30,4.20
2008,01,21,11,31,4.30
2008,01,21,11,32,4.30
2008,01,21,11,33,4.30
2008,01,21,11,34,4.40
2008,01,21,11,35,4.40
2008,01,21,11,36,4.50
2008,01,21,11,37,4.50
2008,01,21,11,38,4.60
2008,01,21,11,39,4.60
2008,01,21,11,40,4.60
2008,01,21,11,41,4.60
2008,01,21,11,42,4.60
2008,01,21,11,43,4.60
2008,01,21,11,44,4.60
2008,01,21,11,45,4.60
2008,01,21,11,46,4.60
2008,01,21,11,47,4.60
2008,01,21,11,48,4.60
2008,01,21,11,49,4.60
2008,01,21,11,50,4.70
2008,01,21,11,51,4.70
2008,01,21,11,52,4.80
2008,01,21,11,53,4.80
2008,01,21,11,54,4.80
2008,01,21,11,55,4.90
2008,01,21,11,56,4.90
2008,01,21,11,57,5.00
2008,01,21,11,58,5.10
2008,01,21,11,59,5.10
2008,01,21,12,00,5.10
2008,01,21,12,01,5.10
2008,01,21,12,02,5.10
2008,01,21,12,03,5.10
2008,01,21,12,04,5.10
2008,01,21,12,05,5.10
2008,01,21,12,06,5.00
2008,01,21,12,07,5.00
2008,01,21,12,08,5.00
2008,01,21,12,09,5.10
2008,01,21,12,10,5.10
2008,01,21,12,11,5.10
2008,01,21,12,12,5.20
2008,01,21,12,13,5.20
2008,01,21,12,14,5.20
2008,01,21,12,15,5.30
2008,01,21,12,16,5.20
2008,01,21,12,17,5.20
2008,01,21,12,18,5.20
2008,01,21,12,19,5.20
2008,01,21,12,20,5.30
2008,01,21,12,21,5.30
2008,01,21,12,22,5.30
2008,01,21,12,23,5.30
2008,01,21,12,24,5.30
2008,01,21,12,25,5.30
2008,01,21,12,26,5.30
2008,01,21,12,27,5.20
2008,01,21,12,28,5.20
2008,01,21,12,29,5.20
2008,01,21,12,30,5.20
2008,01,21,12,31,5.30
2008,01,21,12,32,5.30
2008,01,21,12,33,5.30
2008,01,21,12,34,5.30
2008,01,21,12,35,5.30
2008,01,21,12,36,5.20
2008,01,21,12,37,5.20
2008,01,21,12,38,5.20
2008,01,21,12,39,5.20
2008,01,21,12,40,5.30
2008,01,21,12,41,5.30
2008,01,21,12,42,5.30
2008,01,21,12,43,5.30
2008,01,21,12,44,5.30
2008,01,21,12,45,5.30
2008,01,21,12,46,5.20
2008,01,21,12,47,5.10
2008,01,21,12,48,5.10
2008,01,21,12,49,5.10
2008,01,21,12,50,5.10
2008,01,21,12,51,5.10
2008,01,21,12,52,5.10
2008,01,21,12,53,5.20
2008,01,21,12,54,5.20
2008,01,21,12,55,5.30
2008,01,21,12,56,5.30
2008,01,21,12,57,5.30
2008,01,21,12,58,5.30
2008,01,21,12,59,5.40
2008,01,21,13,00,5.30
2008,01,21,13,01,5.30
2008,01,21,13,02,5.20
2008,01,21,13,03,5.20
2008,01,21,13,04,5.10
2008,01,21,13,05,5.10
2008,01,21,13,06,5.10
2008,01,21,13,07,5.10
2008,01,21,13,08,5.10
2008,01,21,13,09,5.10
2008,01,21,13,10,5.10
2008,01,21,13,11,5.10
2008,01,21,13,12,5.10
2008,01,21,13,13,5.10
2008,01,21,13,14,5.20
2008,01,21,13,15,5.10
2008,01,21,13,16,5.00
2008,01,21,13,17,5.00
2008,01,21,13,18,4.90
2008,01,21,13,19,4.90
2008,01,21,13,20,4.90
2008,01,21,13,21,4.90
2008,01,21,13,22,4.90
2008,01,21,13,23,4.90
2008,01,21,13,24,4.90
2008,01,21,13,25,4.90
2008,01,21,13,26,4.90
2008,01,21,13,27,4.90
2008,01,21,13,28,4.90
2008,01,21,13,29,4.80
2008,01,21,13,30,4.70
2008,01,21,13,31,4.70
2008,01,21,13,32,4.70
2008,01,21,13,33,4.70
2008,01,21,13,34,4.70
2008,01,21,13,35,4.60
2008,01,21,13,36,4.70
2008,01,21,13,37,4.70
2008,01,21,13,38,4.80
2008,01,21,13,39,4.80
2008,01,21,13,40,4.90
2008,01,21,13,41,4.90
2008,01,21,13,42,4.80
2008,01,21,13,43,4.90
2008,01,21,13,44,4.90
2008,01,21,13,45,5.00
2008,01,21,13,46,5.10
2008,01,21,13,47,5.10
2008,01,21,13,48,5.20
2008,01,21,13,49,5.10
2008,01,21,13,50,5.10
2008,01,21,13,51,5.20
2008,01,21,13,52,5.20
2008,01,21,13,53,5.20
2008,01,21,13,54,5.20
2008,01,21,13,55,5.20
2008,01,21,13,56,5.10
2008,01,21,13,57,5.00
2008,01,21,13,58,4.90
2008,01,21,13,59,4.90
2008,01,21,14,00,4.90
2008,01,21,14,01,4.80
2008,01,21,14,02,4.80
2008,01,21,14,03,4.90
2008,01,21,14,04,5.00
2008,01,21,14,05,5.00
2008,01,21,14,06,4.90
2008,01,21,14,07,5.00
2008,01,21,14,08,4.90
2008,01,21,14,09,4.80
2008,01,21,14,10,4.70
2008,01,21,14,11,4.70
2008,01,21,14,12,4.70
2008,01,21,14,13,4.50
2008,01,21,14,14,4.50
2008,01,21,14,15,4.50
2008,01,21,14,16,4.60
2008,01,21,14,17,4.70
2008,01,21,14,18,4.80
2008,01,21,14,19,4.80
2008,01,21,14,20,4.80
2008,01,21,14,21,4.90
2008,01,21,14,22,4.90
2008,01,21,14,23,4.90
2008,01,21,14,24,4.90
2008,01,21,14,25,4.90
2008,01,21,14,26,4.90
2008,01,21,14,27,4.90
2008,01,21,14,28,5.00
2008,01,21,14,29,5.10
2008,01,21,14,30,5.10
2008,01,21,14,31,5.20
2008,01,21,14,32,5.20
2008,01,21,14,33,5.20
2008,01,21,14,34,5.20
2008,01,21,14,35,5.20
2008,01,21,14,36,5.20
2008,01,21,14,37,5.30
2008,01,21,14,38,5.20
2008,01,21,14,39,5.30
2008,01,21,14,40,5.20
2008,01,21,14,41,5.20
2008,01,21,14,42,5.20
2008,01,21,14,43,5.20
2008,01,21,14,44,5.10
2008,01,21,14,45,5.10
2008,01,21,14,46,5.10
2008,01,21,14,47,5.10
2008,01,21,14,48,5.10
2008,01,21,14,49,5.10
2008,01,21,14,50,5.10
2008,01,21,14,51,5.20
2008,01,21,14,52,5.20
2008,01,21,14,53,5.20
2008,01,21,14,54,5.10
2008,01,21,14,55,5.00
2008,01,21,14,56,4.90
2008,01,21,14,57,4.90
2008,01,21,14,58,4.90
2008,01,21,14,59,4.80
2008,01,21,15,00,4.90
2008,01,21,15,01,4.90
2008,01,21,15,02,4.80
2008,01,21,15,03,4.70
2008,01,21,15,04,4.70
2008,01,21,15,05,4.70
2008,01,21,15,06,4.70
2008,01,21,15,07,4.70
2008,01,21,15,08,4.70
2008,01,21,15,09,4.50
2008,01,21,15,10,4.30
2008,01,21,15,11,4.20
2008,01,21,15,12,4.20
2008,01,21,15,13,4.10
2008,01,21,15,14,4.10
2008,01,21,15,15,4.20
2008,01,21,15,16,4.20
2008,01,21,15,17,4.10
2008,01,21,15,18,4.00
2008,01,21,15,19,3.90
2008,01,21,15,20,4.00
2008,01,21,15,21,4.00
2008,01,21,15,22,4.10
2008,01,21,15,23,4.00
2008,01,21,15,24,4.00
2008,01,21,15,25,3.90
2008,01,21,15,26,3.80
2008,01,21,15,27,3.80
2008,01,21,15,28,3.80
2008,01,21,15,29,3.80
2008,01,21,15,30,3.90
2008,01,21,15,31,3.90
2008,01,21,15,32,3.90
2008,01,21,15,33,3.90
2008,01,21,15,34,3.90
2008,01,21,15,35,3.90
2008,01,21,15,36,3.90
2008,01,21,15,37,3.90
2008,01,21,15,38,3.80
2008,01,21,15,39,3.80
2008,01,21,15,40,3.70
2008,01,21,15,41,3.50
2008,01,21,15,42,3.50
2008,01,21,15,43,3.40
2008,01,21,15,44,3.40
2008,01,21,15,45,3.40
2008,01,21,15,46,3.40
2008,01,21,15,47,3.50
2008,01,21,15,48,3.50
2008,01,21,15,49,3.40
2008,01,21,15,50,3.30
2008,01,21,15,51,3.30
2008,01,21,15,52,3.30
2008,01,21,15,53,3.20
2008,01,21,15,54,3.20
2008,01,21,15,55,3.20
2008,01,21,15,56,3.30
2008,01,21,15,57,3.40
2008,01,21,15,58,3.40
2008,01,21,15,59,3.30
2008,01,21,16,00,3.30
2008,01,21,16,01,3.30
2008,01,21,16,02,3.30
2008,01,21,16,03,3.30
2008,01,21,16,04,3.30
2008,01,21,16,05,3.30
2008,01,21,16,06,3.30
2008,01,21,16,07,3.30
2008,01,21,16,08,3.20
2008,01,21,16,09,3.20
2008,01,21,16,10,3.20
2008,01,21,16,11,3.30
2008,01,21,16,12,3.30
2008,01,21,16,13,3.30
2008,01,21,16,14,3.20
2008,01,21,16,15,3.10
2008,01,21,16,16,3.00
2008,01,21,16,17,3.10
2008,01,21,16,18,3.10
2008,01,21,16,19,3.10
2008,01,21,16,20,3.30
2008,01,21,16,21,3.40
2008,01,21,16,22,3.50
2008,01,21,16,23,3.60
2008,01,21,16,24,3.60
2008,01,21,16,25,3.60
2008,01,21,16,26,3.60
2008,01,21,16,27,3.60
2008,01,21,16,28,3.60
2008,01,21,16,29,3.50
2008,01,21,16,30,3.40
2008,01,21,16,31,3.30
2008,01,21,16,32,3.30
2008,01,21,16,33,3.20
2008,01,21,16,34,3.10
2008,01,21,16,35,3.00
2008,01,21,16,36,2.80
2008,01,21,16,37,2.80
2008,01,21,16,38,2.70
2008,01,21,16,39,2.60
2008,01,21,16,40,2.50
2008,01,21,16,41,2.40
2008,01,21,16,42,2.30
2008,01,21,16,43,2.10
2008,01,21,16,44,2.00
2008,01,21,16,45,1.90
2008,01,21,16,46,1.80
2008,01,21,16,47,1.70
2008,01,21,16,48,1.60
2008,01,21,16,49,1.50
2008,01,21,16,50,1.30
2008,01,21,16,51,1.30
2008,01,21,16,52,1.30
2008,01,21,16,53,1.20
2008,01,21,16,54,1.10
2008,01,21,16,55,1.10
2008,01,21,16,56,1.00
2008,01,21,16,57,0.90
2008,01,21,16,58,0.90
2008,01,21,16,59,0.90
2008,01,21,17,00,0.90
2008,01,21,17,01,0.80
2008,01,21,17,02,0.80
2008,01,21,17,03,0.80
2008,01,21,17,04,0.70
2008,01,21,17,05,0.70
2008,01,21,17,06,0.70
2008,01,21,17,07,0.60
2008,01,21,17,08,0.60
2008,01,21,17,09,0.50
2008,01,21,17,10,0.50
2008,01,21,17,11,0.50
2008,01,21,17,12,0.40
2008,01,21,17,13,0.40
2008,01,21,17,14,0.40
2008,01,21,17,15,0.30
2008,01,21,17,16,0.30
2008,01,21,17,17,0.30
2008,01,21,17,18,0.30
2008,01,21,17,19,0.20
2008,01,21,17,20,0.20
2008,01,21,17,21,0.20
2008,01,21,17,22,0.10
2008,01,21,17,23,0.10
2008,01,21,17,24,0.10
2008,01,21,17,25,0.00
2008,01,21,17,26,0.00
2008,01,21,17,27,-0.10
2008,01,21,17,28,-0.10
2008,01,21,17,29,-0.10
2008,01,21,17,30,-0.10
2008,01,21,17,31,-0.20
2008,01,21,17,32,-0.20
2008,01,21,17,33,-0.20
2008,01,21,17,34,-0.20
2008,01,21,17,35,-0.30
2008,01,21,17,36,-0.30
2008,01,21,17,37,-0.30
2008,01,21,17,38,-0.30
2008,01,21,17,39,-0.30
2008,01,21,17,40,-0.40
2008,01,21,17,41,-0.40
2008,01,21,17,42,-0.40
2008,01,21,17,43,-0.40
2008,01,21,17,44,-0.40
2008,01,21,17,45,-0.40
2008,01,21,17,46,-0.50
2008,01,21,17,47,-0.50
2008,01,21,17,48,-0.50
2008,01,21,17,49,-0.50
2008,01,21,17,50,-0.50
2008,01,21,17,51,-0.50
2008,01,21,17,52,-0.50
2008,01,21,17,53,-0.60
2008,01,21,17,54,-0.60
2008,01,21,17,55,-0.60
2008,01,21,17,56,-0.60
2008,01,21,17,57,-0.50
2008,01,21,17,58,-0.50
2008,01,21,17,59,-0.50
2008,01,21,18,00,-0.50
2008,01,21,18,01,-0.40
2008,01,21,18,02,-0.40
2008,01,21,18,03,-0.40
2008,01,21,18,04,-0.40
2008,01,21,18,05,-0.40
2008,01,21,18,06,-0.40
2008,01,21,18,07,-0.40
2008,01,21,18,08,-0.40
2008,01,21,18,09,-0.50
2008,01,21,18,10,-0.50
2008,01,21,18,11,-0.50
2008,01,21,18,12,-0.60
2008,01,21,18,13,-0.60
2008,01,21,18,14,-0.60
2008,01,21,18,15,-0.70
2008,01,21,18,16,-0.70
2008,01,21,18,17,-0.70
2008,01,21,18,18,-0.70
2008,01,21,18,19,-0.80
2008,01,21,18,20,-0.80
2008,01,21,18,21,-0.80
2008,01,21,18,22,-0.80
2008,01,21,18,23,-0.80
2008,01,21,18,24,-0.80
2008,01,21,18,25,-0.80
2008,01,21,18,26,-0.80
2008,01,21,18,27,-0.80
2008,01,21,18,28,-0.80
2008,01,21,18,29,-0.80
2008,01,21,18,30,-0.90
2008,01,21,18,31,-0.90
2008,01,21,18,32,-0.90
2008,01,21,18,33,-0.90
2008,01,21,18,34,-1.00
2008,01,21,18,35,-1.00
2008,01,21,18,36,-1.00
2008,01,21,18,37,-1.10
2008,01,21,18,38,-1.10
2008,01,21,18,39,-1.10
2008,01,21,18,40,-1.10
2008,01,21,18,41,-1.20
2008,01,21,18,42,-1.20
2008,01,21,18,43,-1.20
2008,01,21,18,44,-1.30
2008,01,21,18,45,-1.30
2008,01,21,18,46,-1.30
2008,01,21,18,47,-1.30
2008,01,21,18,48,-1.40
2008,01,21,18,49,-1.40
2008,01,21,18,50,-1.40
2008,01,21,18,51,-1.40
2008,01,21,18,52,-1.40
2008,01,21,18,53,-1.40
2008,01,21,18,54,-1.40
2008,01,21,18,55,-1.40
2008,01,21,18,56,-1.40
2008,01,21,18,57,-1.30
2008,01,21,18,58,-1.30
2008,01,21,18,59,-1.30
2008,01,21,19,00,-1.30
2008,01,21,19,01,-1.30
2008,01,21,19,02,-1.30
2008,01,21,19,03,-1.20
2008,01,21,19,04,-1.20
2008,01,21,19,05,-1.20
2008,01,21,19,06,-1.10
2008,01,21,19,07,-1.10
2008,01,21,19,08,-1.10
2008,01,21,19,09,-1.10
2008,01,21,19,10,-1.10
2008,01,21,19,11,-1.10
2008,01,21,19,12,-1.10
2008,01,21,19,13,-1.10
2008,01,21,19,14,-1.10
2008,01,21,19,15,-1.20
2008,01,21,19,16,-1.20
2008,01,21,19,17,-1.20
2008,01,21,19,18,-1.20
2008,01,21,19,19,-1.30
2008,01,21,19,20,-1.30
2008,01,21,19,21,-1.30
2008,01,21,19,22,-1.30
2008,01,21,19,23,-1.30
2008,01,21,19,24,-1.30
2008,01,21,19,25,-1.30
2008,01,21,19,26,-1.30
2008,01,21,19,27,-1.30
2008,01,21,19,28,-1.30
2008,01,21,19,29,-1.30
2008,01,21,19,30,-1.30
2008,01,21,19,31,-1.30
2008,01,21,19,32,-1.30
2008,01,21,19,33,-1.30
2008,01,21,19,34,-1.30
2008,01,21,19,35,-1.30
2008,01,21,19,36,-1.30
2008,01,21,19,37,-1.30
2008,01,21,19,38,-1.30
2008,01,21,19,39,-1.30
2008,01,21,19,40,-1.40
2008,01,21,19,41,-1.40
2008,01,21,19,42,-1.40
2008,01,21,19,43,-1.50
2008,01,21,19,44,-1.50
2008,01,21,19,45,-1.50
2008,01,21,19,46,-1.50
2008,01,21,19,47,-1.60
2008,01,21,19,48,-1.60
2008,01,21,19,49,-1.60
2008,01,21,19,50,-1.70
2008,01,21,19,51,-1.70
2008,01,21,19,52,-1.70
2008,01,21,19,53,-1.80
2008,01,21,19,54,-1.80
2008,01,21,19,55,-1.80
2008,01,21,19,56,-1.80
2008,01,21,19,57,-1.80
2008,01,21,19,58,-1.70
2008,01,21,19,59,-1.70
2008,01,21,20,00,-1.70
2008,01,21,20,01,-1.70
2008,01,21,20,02,-1.60
2008,01,21,20,03,-1.60
2008,01,21,20,04,-1.60
2008,01,21,20,05,-1.60
2008,01,21,20,06,-1.60
2008,01,21,20,07,-1.60
2008,01,21,20,08,-1.60
2008,01,21,20,09,-1.60
2008,01,21,20,10,-1.60
2008,01,21,20,11,-1.50
2008,01,21,20,12,-1.50
2008,01,21,20,13,-1.50
2008,01,21,20,14,-1.50
2008,01,21,20,15,-1.50
2008,01,21,20,16,-1.50
2008,01,21,20,17,-1.50
2008,01,21,20,18,-1.60
2008,01,21,20,19,-1.60
2008,01,21,20,20,-1.60
2008,01,21,20,21,-1.60
2008,01,21,20,22,-1.60
2008,01,21,20,23,-1.60
2008,01,21,20,24,-1.60
2008,01,21,20,25,-1.60
2008,01,21,20,26,-1.60
2008,01,21,20,27,-1.60
2008,01,21,20,28,-1.60
2008,01,21,20,29,-1.60
2008,01,21,20,30,-1.70
2008,01,21,20,31,-1.70
2008,01,21,20,32,-1.70
2008,01,21,20,33,-1.70
2008,01,21,20,34,-1.70
2008,01,21,20,35,-1.80
2008,01,21,20,36,-1.70
2008,01,21,20,37,-1.80
2008,01,21,20,38,-1.70
2008,01,21,20,39,-1.70
2008,01,21,20,40,-1.70
2008,01,21,20,41,-1.70
2008,01,21,20,42,-1.80
2008,01,21,20,43,-1.70
2008,01,21,20,44,-1.80
2008,01,21,20,45,-1.70
2008,01,21,20,46,-1.70
2008,01,21,20,47,-1.70
2008,01,21,20,48,-1.60
2008,01,21,20,49,-1.60
2008,01,21,20,50,-1.50
2008,01,21,20,51,-1.50
2008,01,21,20,52,-1.50
2008,01,21,20,53,-1.50
2008,01,21,20,54,-1.50
2008,01,21,20,55,-1.60
2008,01,21,20,56,-1.60
2008,01,21,20,57,-1.60
2008,01,21,20,58,-1.60
2008,01,21,20,59,-1.70
2008,01,21,21,00,-1.70
2008,01,21,21,01,-1.70
2008,01,21,21,02,-1.70
2008,01,21,21,03,-1.80
2008,01,21,21,04,-1.80
2008,01,21,21,05,-1.80
2008,01,21,21,06,-1.80
2008,01,21,21,07,-1.80
2008,01,21,21,08,-1.80
2008,01,21,21,09,-1.80
2008,01,21,21,10,-1.90
2008,01,21,21,11,-1.90
2008,01,21,21,12,-1.90
2008,01,21,21,13,-1.90
2008,01,21,21,14,-2.00
2008,01,21,21,15,-2.00
2008,01,21,21,16,-2.00
2008,01,21,21,17,-2.10
2008,01,21,21,18,-2.10
2008,01,21,21,19,-2.10
2008,01,21,21,20,-2.10
2008,01,21,21,21,-2.20
2008,01,21,21,22,-2.20
2008,01,21,21,23,-2.20
2008,01,21,21,24,-2.20
2008,01,21,21,25,-2.20
2008,01,21,21,26,-2.30
2008,01,21,21,27,-2.30
2008,01,21,21,28,-2.30
2008,01,21,21,29,-2.30
2008,01,21,21,30,-2.30
2008,01,21,21,31,-2.40
2008,01,21,21,32,-2.40
2008,01,21,21,33,-2.40
2008,01,21,21,34,-2.40
2008,01,21,21,35,-2.50
2008,01,21,21,36,-2.50
2008,01,21,21,37,-2.50
2008,01,21,21,38,-2.50
2008,01,21,21,39,-2.50
2008,01,21,21,40,-2.50
2008,01,21,21,41,-2.50
2008,01,21,21,42,-2.50
2008,01,21,21,43,-2.50
2008,01,21,21,44,-2.50
2008,01,21,21,45,-2.50
2008,01,21,21,46,-2.50
2008,01,21,21,47,-2.40
2008,01,21,21,48,-2.50
2008,01,21,21,49,-2.50
2008,01,21,21,50,-2.50
2008,01,21,21,51,-2.50
2008,01,21,21,52,-2.50
2008,01,21,21,53,-2.50
2008,01,21,21,54,-2.50
2008,01,21,21,55,-2.50
2008,01,21,21,56,-2.50
2008,01,21,21,57,-2.50
2008,01,21,21,58,-2.50
2008,01,21,21,59,-2.50
2008,01,21,22,00,-2.50
2008,01,21,22,01,-2.40
2008,01,21,22,02,-2.40
2008,01,21,22,03,-2.40
2008,01,21,22,04,-2.40
2008,01,21,22,05,-2.40
2008,01,21,22,06,-2.40
2008,01,21,22,07,-2.40
2008,01,21,22,08,-2.40
2008,01,21,22,09,-2.40
2008,01,21,22,10,-2.40
2008,01,21,22,11,-2.40
2008,01,21,22,12,-2.40
2008,01,21,22,13,-2.40
2008,01,21,22,14,-2.40
2008,01,21,22,15,-2.30
2008,01,21,22,16,-2.30
2008,01,21,22,17,-2.30
2008,01,21,22,18,-2.30
2008,01,21,22,19,-2.30
2008,01,21,22,20,-2.30
2008,01,21,22,21,-2.30
2008,01,21,22,22,-2.30
2008,01,21,22,23,-2.30
2008,01,21,22,24,-2.30
2008,01,21,22,25,-2.30
2008,01,21,22,26,-2.30
2008,01,21,22,27,-2.30
2008,01,21,22,28,-2.30
2008,01,21,22,29,-2.30
2008,01,21,22,30,-2.30
2008,01,21,22,31,-2.30
2008,01,21,22,32,-2.30
2008,01,21,22,33,-2.40
2008,01,21,22,34,-2.40
2008,01,21,22,35,-2.40
2008,01,21,22,36,-2.40
2008,01,21,22,37,-2.40
2008,01,21,22,38,-2.40
2008,01,21,22,39,-2.40
2008,01,21,22,40,-2.40
2008,01,21,22,41,-2.40
2008,01,21,22,42,-2.40
2008,01,21,22,43,-2.40
2008,01,21,22,44,-2.40
2008,01,21,22,45,-2.40
2008,01,21,22,46,-2.40
2008,01,21,22,47,-2.40
2008,01,21,22,48,-2.40
2008,01,21,22,49,-2.40
2008,01,21,22,50,-2.40
2008,01,21,22,51,-2.40
2008,01,21,22,52,-2.40
2008,01,21,22,53,-2.40
2008,01,21,22,54,-2.40
2008,01,21,22,55,-2.40
2008,01,21,22,56,-2.40
2008,01,21,22,57,-2.40
2008,01,21,22,58,-2.40
2008,01,21,22,59,-2.40
2008,01,21,23,00,-2.40
2008,01,21,23,01,-2.40
2008,01,21,23,02,-2.30
2008,01,21,23,03,-2.30
2008,01,21,23,04,-2.30
2008,01,21,23,05,-2.30
2008,01,21,23,06,-2.20
2008,01,21,23,07,-2.20
2008,01,21,23,08,-2.20
2008,01,21,23,09,-2.20
2008,01,21,23,10,-2.20
2008,01,21,23,11,-2.20
2008,01,21,23,12,-2.20
2008,01,21,23,13,-2.20
2008,01,21,23,14,-2.20
2008,01,21,23,15,-2.20
2008,01,21,23,16,-2.20
2008,01,21,23,17,-2.20
2008,01,21,23,18,-2.30
2008,01,21,23,19,-2.30
2008,01,21,23,20,-2.30
2008,01,21,23,21,-2.30
2008,01,21,23,22,-2.30
2008,01,21,23,23,-2.30
2008,01,21,23,24,-2.30
2008,01,21,23,25,-2.30
2008,01,21,23,26,-2.30
2008,01,21,23,27,-2.30
2008,01,21,23,28,-2.30
2008,01,21,23,29,-2.30
2008,01,21,23,30,-2.40
2008,01,21,23,31,-2.40
2008,01,21,23,32,-2.40
2008,01,21,23,33,-2.40
2008,01,21,23,34,-2.40
2008,01,21,23,35,-2.40
2008,01,21,23,36,-2.40
2008,01,21,23,37,-2.40
2008,01,21,23,38,-2.40
2008,01,21,23,39,-2.40
2008,01,21,23,40,-2.40
2008,01,21,23,41,-2.40
2008,01,21,23,42,-2.40
2008,01,21,23,43,-2.40
2008,01,21,23,44,-2.40
2008,01,21,23,45,-2.40
2008,01,21,23,46,-2.40
2008,01,21,23,47,-2.40
2008,01,21,23,48,-2.40
2008,01,21,23,49,-2.40
2008,01,21,23,50,-2.40
2008,01,21,23,51,-2.50
2008,01,21,23,52,-2.50
2008,01,21,23,53,-2.50
2008,01,21,23,54,-2.50
2008,01,21,23,55,-2.60
2008,01,21,23,56,-2.60
2008,01,21,23,57,-2.60
2008,01,21,23,58,-2.60
2008,01,21,23,59,-2.60
